Погода в Терновом

Россия / Волгоградская область     51˚02′12″N   43˚42′53″E
темп.,
°C
ветер,
м/с
пор.,
м/с
влажн.,
%
обл.,
%
осадки,
мм/ч
давл.,
гПа
погр.,
м
16 января, сб
сб1600:00−8˚зсз5995100 2.9 1003434
03:00−9˚з71394100 5.1 1004599
06:00−9˚з71391100 0.6 1004551
09:00−11˚зюз51194100 0.7 1005272
12:00−7˚зюз7129299 0.1 1006702
15:00−11˚зюз81390100 0.3 1008619
18:00−13˚зюз81491100 0.1 1009595
21:00−14˚зюз71492100 0.1 1011460
17 января, вс
вс1700:00−17˚зюз51195100 0.0 1013306
03:00−19˚зюз4109698 0.1 1014238
06:00−22˚зюз479850 0.0 1014113
09:00−22˚зюз349732 0.0 101656
12:00−19˚з359426 0.0 1016201
15:00−20˚зюз129519 0.0 101620
18:00−23˚зюз119781 0.0 101720
21:00−21˚ссв239590 0.0 101826
18 января, пн
пн1800:00−21˚св339598 0.0 101747
03:00−22˚св339499 0.0 101743
06:00−21˚св3494100 0.0 101776
09:00−18˚св2492100 0.0 1018158
12:00−16˚с2395100 1.2 1018230
15:00−16˚с3496100 2.9 1017231
18:00−16˚с2496100 1.1 1017217
21:00−17˚ссз2397100 1.6 101850
19 января, вт
вт1900:00−18˚ссз239698 0.1 101847
03:00−20˚сз239891 0.1 101821
06:00−22˚сз239833 0.0 101920
09:00−22˚зсз229767 0.0 102028
12:00−19˚сз2293100 0.0 1020166
15:00−19˚з229698 0.0 101941
18:00−22˚зсз239877 0.0 102120
21:00−23˚сз229883 0.1 102220
20 января, ср
ср2000:00−24˚зсз239883 0.0 102320
03:00−25˚сз239886 0.1 102419
06:00−25˚сз239797 0.0 102439
09:00−24˚зсз239699 0.0 1026108
12:00−22˚зсз349464 0.0 1026207
15:00−21˚зсз359535 0.0 1026174
18:00−24˚сз34970 0.0 102842
21:00−25˚ссз34982 0.0 102933